LDA328 UUYH-USTR

Flight info

Callsign LDA328
Flight time 1h 22m
Altitude 41000
Route OKRAN3Q OKRAN M59 ERUSA M168 BIBLI N987 GOREN GOREN1M
Aircraft B736/M-SDE2E3FGHIRWXY/LB1

Departure

Time 2026-04-28 17:07
Airport Ukhta Airport (UUYH)

Arrival

Time 2026-04-28 18:29
Airport Roshchino International Airport (USTR)
Time Latitude Longitude Altitude Speed Heading
2026-04-28 16:49 63.55615 53.80318 479 ft 0 kts 257°
2026-04-28 17:02 63.55615 53.80317 479 ft 0 kts 257°
2026-04-28 17:02 63.55613 53.80299 479 ft 3 kts 257°
2026-04-28 17:03 63.55661 53.80176 478 ft 10 kts 342°
2026-04-28 17:03 63.55750 53.80186 471 ft 15 kts 351°
2026-04-28 17:03 63.55852 53.80068 473 ft 18 kts 331°
2026-04-28 17:04 63.55748 53.79868 472 ft 13 kts 194°
2026-04-28 17:04 63.55663 53.79817 475 ft 13 kts 200°
2026-04-28 17:05 63.55565 53.79772 474 ft 4 kts 83°
2026-04-28 17:05 63.55586 53.79798 480 ft 4 kts 353°
2026-04-28 17:05 63.55614 53.79793 473 ft 4 kts 360°
2026-04-28 17:06 63.55621 53.79795 479 ft 0 kts
2026-04-28 17:06 63.55622 53.79796 479 ft 0 kts
2026-04-28 17:07 63.55698 53.79835 474 ft 47 kts 15°
2026-04-28 17:07 63.56333 53.80236 465 ft 140 kts 15°
2026-04-28 17:07 63.57433 53.80929 845 ft 175 kts 16°
2026-04-28 17:07 63.58592 53.81596 1966 ft 170 kts 17°
2026-04-28 17:08 63.59761 53.82329 2809 ft 186 kts 16°
2026-04-28 17:08 63.61133 53.83195 3225 ft 224 kts 16°
2026-04-28 17:08 63.62747 53.84229 3524 ft 257 kts 19°
2026-04-28 17:08 63.64313 53.86423 3987 ft 274 kts 52°
2026-04-28 17:09 63.65126 53.90225 5042 ft 269 kts 85°
2026-04-28 17:09 63.65061 53.94390 6126 ft 268 kts 105°
2026-04-28 17:09 63.64641 53.98516 7114 ft 273 kts 108°
2026-04-28 17:09 63.64156 54.02680 8174 ft 277 kts 109°
2026-04-28 17:10 63.63655 54.06894 9207 ft 281 kts 109°
2026-04-28 17:10 63.63148 54.11166 9784 ft 283 kts 109°
2026-04-28 17:10 63.62644 54.15485 9999 ft 286 kts 109°
2026-04-28 17:10 63.62140 54.19827 10008 ft 287 kts 109°
2026-04-28 17:11 63.61641 54.24177 10018 ft 288 kts 109°
2026-04-28 17:11 63.61144 54.28533 10014 ft 288 kts 109°
2026-04-28 17:11 63.60645 54.32883 10019 ft 287 kts 109°
2026-04-28 17:11 63.60182 54.36921 10016 ft 286 kts 109°
2026-04-28 17:12 63.59687 54.41239 10012 ft 286 kts 109°
2026-04-28 17:12 63.59192 54.45551 10013 ft 286 kts 109°
2026-04-28 17:12 63.58692 54.49885 10035 ft 286 kts 109°
2026-04-28 17:12 63.58184 54.54255 10078 ft 296 kts 109°
2026-04-28 17:13 63.57637 54.58932 10314 ft 324 kts 109°
2026-04-28 17:13 63.57038 54.64036 10540 ft 350 kts 108°
2026-04-28 17:13 63.56409 54.69428 11038 ft 362 kts 108°
2026-04-28 17:13 63.55770 54.74930 11814 ft 366 kts 108°
2026-04-28 17:14 63.55128 54.80442 12652 ft 367 kts 108°
2026-04-28 17:14 63.54476 54.86010 13396 ft 370 kts 109°
2026-04-28 17:14 63.53816 54.91612 14057 ft 374 kts 108°
2026-04-28 17:14 63.53142 54.97302 14691 ft 378 kts 108°
2026-04-28 17:15 63.52459 55.03019 15291 ft 382 kts 109°
2026-04-28 17:15 63.51462 55.08562 15656 ft 389 kts 123°
2026-04-28 17:15 63.49793 55.13310 16355 ft 388 kts 138°
2026-04-28 17:15 63.47736 55.17227 17165 ft 390 kts 143°
2026-04-28 17:16 63.45623 55.21087 17881 ft 395 kts 143°
2026-04-28 17:16 63.43487 55.24996 18515 ft 400 kts 143°
2026-04-28 17:16 63.41324 55.28964 19177 ft 404 kts 143°
2026-04-28 17:16 63.39173 55.32922 19830 ft 407 kts 143°
2026-04-28 17:17 63.36955 55.37012 20475 ft 411 kts 143°
2026-04-28 17:17 63.34770 55.41043 21092 ft 415 kts 143°
2026-04-28 17:17 63.32541 55.45150 21688 ft 419 kts 143°
2026-04-28 17:17 63.30282 55.49309 22280 ft 423 kts 143°
2026-04-28 17:18 63.28008 55.53488 22875 ft 427 kts 143°
2026-04-28 17:18 63.25702 55.57717 23416 ft 431 kts 143°
2026-04-28 17:18 63.23382 55.61965 23888 ft 434 kts 143°
2026-04-28 17:18 63.21042 55.66240 24375 ft 437 kts 143°
2026-04-28 17:19 63.18696 55.70517 24857 ft 439 kts 143°
2026-04-28 17:19 63.16318 55.74843 25320 ft 442 kts 144°
2026-04-28 17:19 63.13935 55.79167 25767 ft 446 kts 144°
2026-04-28 17:19 63.11525 55.83532 26192 ft 449 kts 144°
2026-04-28 17:20 63.09100 55.87913 26571 ft 451 kts 144°
2026-04-28 17:20 63.07488 55.90820 26844 ft 453 kts 144°
2026-04-28 17:20 63.04207 55.96722 27361 ft 457 kts 144°
2026-04-28 17:20 63.01743 56.01143 27786 ft 457 kts 144°
2026-04-28 17:21 62.99279 56.05559 28333 ft 455 kts 144°
2026-04-28 17:21 62.96830 56.09938 28909 ft 453 kts 144°
2026-04-28 17:21 62.94386 56.14298 29474 ft 452 kts 144°
2026-04-28 17:22 62.89507 56.22967 30378 ft 451 kts 144°
2026-04-28 17:22 62.87064 56.27288 30755 ft 452 kts 144°
2026-04-28 17:22 62.84616 56.31598 31102 ft 452 kts 145°
2026-04-28 17:23 62.79731 56.40178 31995 ft 450 kts 145°
2026-04-28 17:23 62.77287 56.44464 32354 ft 451 kts 145°
2026-04-28 17:23 62.74845 56.48736 32712 ft 451 kts 145°
2026-04-28 17:23 62.72401 56.53006 33085 ft 451 kts 145°
2026-04-28 17:24 62.69955 56.57273 33462 ft 451 kts 145°
2026-04-28 17:24 62.67500 56.61546 33818 ft 451 kts 145°
2026-04-28 17:24 62.65117 56.65684 34116 ft 452 kts 145°
2026-04-28 17:24 62.62594 56.70054 34441 ft 451 kts 145°
2026-04-28 17:25 62.60143 56.74292 34732 ft 451 kts 145°
2026-04-28 17:25 62.55249 56.82725 35389 ft 449 kts 145°
2026-04-28 17:25 62.52800 56.86930 35659 ft 449 kts 145°
2026-04-28 17:26 62.50342 56.91142 35934 ft 449 kts 145°
2026-04-28 17:26 62.47893 56.95330 36229 ft 449 kts 145°
2026-04-28 17:26 62.45442 56.99512 36533 ft 449 kts 145°
2026-04-28 17:26 62.43021 57.03635 36803 ft 449 kts 145°
2026-04-28 17:27 62.40538 57.07855 37081 ft 449 kts 145°
2026-04-28 17:27 62.38098 57.11992 37357 ft 449 kts 145°
2026-04-28 17:27 62.35663 57.16112 37590 ft 449 kts 145°
2026-04-28 17:27 62.33210 57.20253 37874 ft 448 kts 145°
2026-04-28 17:28 62.30759 57.24382 38137 ft 448 kts 145°
2026-04-28 17:28 62.25853 57.32620 38563 ft 449 kts 145°
2026-04-28 17:28 62.23386 57.36749 38766 ft 448 kts 145°
2026-04-28 17:29 62.20922 57.40865 38966 ft 448 kts 145°
2026-04-28 17:29 62.18466 57.44959 39146 ft 448 kts 145°
2026-04-28 17:29 62.16006 57.49050 39327 ft 448 kts 145°
2026-04-28 17:30 62.11084 57.57211 39673 ft 448 kts 146°
2026-04-28 17:30 62.06150 57.65359 40064 ft 447 kts 145°
2026-04-28 17:30 62.03689 57.69409 40212 ft 448 kts 145°
2026-04-28 17:31 62.01219 57.73463 40376 ft 448 kts 145°
2026-04-28 17:31 61.96284 57.81540 40696 ft 448 kts 145°
2026-04-28 17:32 61.91339 57.89608 40802 ft 447 kts 145°
2026-04-28 17:32 61.88872 57.93618 40805 ft 447 kts 145°
2026-04-28 17:32 61.83925 58.01626 40812 ft 447 kts 146°
2026-04-28 17:33 61.79810 58.08269 40820 ft 447 kts 146°
2026-04-28 17:33 61.75691 58.14898 40827 ft 448 kts 146°
2026-04-28 17:34 61.69887 58.24194 40833 ft 448 kts 146°
2026-04-28 17:34 61.64916 58.32121 40832 ft 448 kts 146°
2026-04-28 17:35 61.59944 58.40017 40828 ft 448 kts 146°
2026-04-28 17:35 61.54959 58.47899 40845 ft 448 kts 146°
2026-04-28 17:36 61.49980 58.55743 40841 ft 448 kts 146°
2026-04-28 17:36 61.44992 58.63565 40851 ft 448 kts 146°
2026-04-28 17:37 61.39998 58.71364 40846 ft 448 kts 146°
2026-04-28 17:37 61.35004 58.79135 40854 ft 447 kts 147°
2026-04-28 17:38 61.30005 58.86883 40851 ft 448 kts 147°
2026-04-28 17:38 61.24997 58.94609 40865 ft 448 kts 147°
2026-04-28 17:39 61.19989 59.02306 40866 ft 448 kts 147°
2026-04-28 17:40 61.12485 59.13776 40845 ft 449 kts 147°
2026-04-28 17:40 61.07458 59.21424 40876 ft 449 kts 147°
2026-04-28 17:41 61.02424 59.29053 40884 ft 449 kts 148°
2026-04-28 17:41 60.97388 59.36653 40879 ft 449 kts 148°
2026-04-28 17:42 60.92348 59.44228 40891 ft 449 kts 148°
2026-04-28 17:42 60.87313 59.51771 40862 ft 448 kts 148°
2026-04-28 17:43 60.82263 59.59304 40873 ft 448 kts 148°
2026-04-28 17:43 60.77234 59.66771 40888 ft 448 kts 148°
2026-04-28 17:44 60.72170 59.74261 40880 ft 448 kts 148°
2026-04-28 17:44 60.67119 59.81703 40883 ft 448 kts 148°
2026-04-28 17:45 60.62072 59.89113 40861 ft 447 kts 149°
2026-04-28 17:45 60.57023 59.96495 40886 ft 447 kts 149°
2026-04-28 17:46 60.51968 60.03858 40892 ft 447 kts 149°
2026-04-28 17:46 60.46909 60.11193 40892 ft 447 kts 149°
2026-04-28 17:47 60.41840 60.18516 40898 ft 448 kts 149°
2026-04-28 17:47 60.36766 60.25818 40885 ft 448 kts 149°
2026-04-28 17:48 60.31711 60.33063 40894 ft 448 kts 149°
2026-04-28 17:48 60.26621 60.40334 40902 ft 448 kts 149°
2026-04-28 17:49 60.21524 60.47583 40898 ft 449 kts 150°
2026-04-28 17:49 60.16425 60.54807 40899 ft 448 kts 150°
2026-04-28 17:50 60.11332 60.61999 40898 ft 446 kts 150°
2026-04-28 17:50 60.06260 60.69131 40904 ft 445 kts 150°
2026-04-28 17:51 60.01196 60.76222 40910 ft 445 kts 150°
2026-04-28 17:51 59.96157 60.83254 40912 ft 445 kts 150°
2026-04-28 17:52 59.91085 60.90305 40911 ft 445 kts 150°
2026-04-28 17:52 59.83477 61.00832 40909 ft 443 kts 150°
2026-04-28 17:53 59.78423 61.07791 40922 ft 443 kts 150°
2026-04-28 17:53 59.73338 61.14766 40919 ft 443 kts 150°
2026-04-28 17:54 59.68266 61.21697 40927 ft 443 kts 150°
2026-04-28 17:54 59.63181 61.28625 40910 ft 443 kts 151°
2026-04-28 17:55 59.58107 61.35509 40922 ft 443 kts 151°
2026-04-28 17:55 59.53021 61.42379 40929 ft 443 kts 151°
2026-04-28 17:56 59.47935 61.49227 40933 ft 443 kts 151°
2026-04-28 17:56 59.42849 61.56049 40934 ft 443 kts 151°
2026-04-28 17:57 59.37748 61.62868 40934 ft 442 kts 152°
2026-04-28 17:57 59.32656 61.69649 40937 ft 443 kts 152°
2026-04-28 17:58 59.27557 61.76410 40945 ft 443 kts 152°
2026-04-28 17:58 59.22446 61.83168 40939 ft 443 kts 152°
2026-04-28 17:59 59.17338 61.89894 40951 ft 444 kts 152°
2026-04-28 17:59 59.12214 61.96617 40950 ft 444 kts 152°
2026-04-28 18:00 59.07091 62.03316 40944 ft 444 kts 152°
2026-04-28 18:00 59.01994 62.09955 40946 ft 444 kts 152°
2026-04-28 18:01 58.96874 62.16599 40947 ft 443 kts 152°
2026-04-28 18:01 58.91745 62.23232 40923 ft 443 kts 152°
2026-04-28 18:02 58.86625 62.29829 40941 ft 442 kts 152°
2026-04-28 18:02 58.81493 62.36416 40956 ft 442 kts 152°
2026-04-28 18:03 58.76366 62.42976 40953 ft 443 kts 152°
2026-04-28 18:03 58.71238 62.49514 40955 ft 443 kts 152°
2026-04-28 18:04 58.66087 62.56058 40934 ft 442 kts 152°
2026-04-28 18:04 58.60956 62.62553 40950 ft 442 kts 152°
2026-04-28 18:05 58.56689 62.67933 40957 ft 441 kts 152°
2026-04-28 18:05 58.51149 62.76717 40961 ft 453 kts 139°
2026-04-28 18:06 58.46919 62.85661 40928 ft 453 kts 138°
2026-04-28 18:06 58.42699 62.94580 40951 ft 452 kts 139°
2026-04-28 18:07 58.38451 63.03422 40957 ft 452 kts 139°
2026-04-28 18:07 58.34180 63.12234 40972 ft 453 kts 139°
2026-04-28 18:08 58.29898 63.21031 40968 ft 453 kts 139°
2026-04-28 18:08 58.25598 63.29829 40597 ft 459 kts 139°
2026-04-28 18:09 58.23439 63.34240 40190 ft 452 kts 140°
2026-04-28 18:09 58.21318 63.38573 39668 ft 447 kts 140°
2026-04-28 18:09 58.19215 63.42860 39054 ft 439 kts 140°
2026-04-28 18:09 58.17138 63.47079 37990 ft 438 kts 141°
2026-04-28 18:10 58.15049 63.51305 36659 ft 440 kts 142°
2026-04-28 18:10 58.12968 63.55514 35812 ft 433 kts 142°
2026-04-28 18:10 58.10913 63.59670 34962 ft 433 kts 143°
2026-04-28 18:10 58.08852 63.63787 34527 ft 425 kts 144°
2026-04-28 18:11 58.06816 63.67786 33752 ft 425 kts 145°
2026-04-28 18:11 58.04728 63.71819 32813 ft 435 kts 145°
2026-04-28 18:11 58.02595 63.75925 31816 ft 440 kts 145°
2026-04-28 18:11 58.00448 63.80067 30773 ft 444 kts 145°
2026-04-28 18:12 57.98289 63.84248 29639 ft 445 kts 145°
2026-04-28 18:12 57.96134 63.88423 28373 ft 445 kts 144°
2026-04-28 18:12 57.93978 63.92598 27134 ft 445 kts 144°
2026-04-28 18:12 57.91820 63.96765 25944 ft 444 kts 144°
2026-04-28 18:13 57.89671 64.00911 24964 ft 440 kts 144°
2026-04-28 18:13 57.87551 64.04994 24036 ft 434 kts 143°
2026-04-28 18:13 57.85448 64.09031 23013 ft 430 kts 143°
2026-04-28 18:13 57.83372 64.13007 22038 ft 423 kts 143°
2026-04-28 18:14 57.81316 64.16888 21132 ft 415 kts 144°
2026-04-28 18:14 57.79267 64.20650 20219 ft 409 kts 144°
2026-04-28 18:14 57.77239 64.24328 19357 ft 403 kts 145°
2026-04-28 18:14 57.75229 64.27957 18518 ft 399 kts 144°
2026-04-28 18:15 57.73244 64.31545 17572 ft 395 kts 144°
2026-04-28 18:15 57.71307 64.35047 16683 ft 390 kts 144°
2026-04-28 18:15 57.69368 64.38557 15832 ft 385 kts 144°
2026-04-28 18:15 57.67461 64.42008 15007 ft 379 kts 144°
2026-04-28 18:16 57.65580 64.45409 14195 ft 374 kts 144°
2026-04-28 18:16 57.63715 64.48771 13334 ft 369 kts 144°
2026-04-28 18:16 57.61877 64.52079 12506 ft 365 kts 143°
2026-04-28 18:16 57.60058 64.55347 11734 ft 362 kts 143°
2026-04-28 18:17 57.58246 64.58600 10925 ft 360 kts 143°
2026-04-28 18:17 57.56489 64.61777 10776 ft 343 kts 143°
2026-04-28 18:17 57.54824 64.64771 10620 ft 326 kts 143°
2026-04-28 18:17 57.53213 64.67647 10492 ft 313 kts 144°
2026-04-28 18:18 57.51676 64.70391 10355 ft 300 kts 144°
2026-04-28 18:18 57.50197 64.73033 10256 ft 290 kts 143°
2026-04-28 18:18 57.48924 64.75907 10124 ft 288 kts 131°
2026-04-28 18:18 57.48233 64.77993 10050 ft 283 kts 129°
2026-04-28 18:19 57.46929 64.82234 9580 ft 283 kts 128°
2026-04-28 18:19 57.45960 64.85394 9245 ft 281 kts 128°
2026-04-28 18:19 57.44982 64.88527 8909 ft 279 kts 129°
2026-04-28 18:19 57.43998 64.91643 8581 ft 278 kts 129°
2026-04-28 18:20 57.43015 64.94728 8256 ft 278 kts 129°
2026-04-28 18:20 57.42035 64.97789 7926 ft 277 kts 129°
2026-04-28 18:20 57.41051 65.00844 7604 ft 275 kts 129°
2026-04-28 18:20 57.40064 65.03902 7270 ft 274 kts 130°
2026-04-28 18:21 57.39085 65.06927 6935 ft 272 kts 129°
2026-04-28 18:21 57.38160 65.09978 6598 ft 277 kts 120°
2026-04-28 18:21 57.37795 65.13564 6287 ft 287 kts 102°
2026-04-28 18:21 57.37692 65.15998 6058 ft 285 kts 102°
2026-04-28 18:22 57.37479 65.20885 5609 ft 284 kts 102°
2026-04-28 18:22 57.37312 65.24467 5300 ft 282 kts 103°
2026-04-28 18:22 57.37192 65.26908 5093 ft 281 kts 103°
2026-04-28 18:22 57.36950 65.31680 4677 ft 280 kts 103°
2026-04-28 18:23 57.36823 65.34104 4447 ft 280 kts 103°
2026-04-28 18:23 57.36514 65.38799 3993 ft 272 kts 114°
2026-04-28 18:23 57.35639 65.41699 3808 ft 248 kts 138°
2026-04-28 18:23 57.34852 65.43225 3740 ft 236 kts 145°
2026-04-28 18:24 57.33656 65.45210 3629 ft 227 kts 147°
2026-04-28 18:24 57.32880 65.46476 3571 ft 222 kts 147°
2026-04-28 18:24 57.31390 65.48925 3441 ft 212 kts 147°
2026-04-28 18:24 57.30247 65.50581 3331 ft 196 kts 164°
2026-04-28 18:25 57.29036 65.50625 3258 ft 167 kts 207°
2026-04-28 18:25 57.28079 65.49460 3025 ft 164 kts 210°
2026-04-28 18:25 57.27168 65.48267 2774 ft 162 kts 217°
2026-04-28 18:26 57.25608 65.45607 2325 ft 141 kts 220°
2026-04-28 18:26 57.24969 65.44358 2125 ft 128 kts 220°
2026-04-28 18:26 57.24384 65.43186 1898 ft 119 kts 219°
2026-04-28 18:26 57.23834 65.42080 1726 ft 111 kts 219°
2026-04-28 18:27 57.23332 65.41066 1567 ft 103 kts 219°
2026-04-28 18:27 57.22851 65.40100 1463 ft 104 kts 219°
2026-04-28 18:27 57.22366 65.39107 1341 ft 105 kts 224°
2026-04-28 18:27 57.21857 65.38094 1225 ft 108 kts 221°
2026-04-28 18:28 57.21338 65.37051 1061 ft 110 kts 223°
2026-04-28 18:28 57.20816 65.35993 886 ft 112 kts 225°
2026-04-28 18:28 57.20297 65.34925 759 ft 112 kts 222°
2026-04-28 18:28 57.19755 65.33848 669 ft 118 kts 223°
2026-04-28 18:29 57.19195 65.32712 483 ft 120 kts 225°
2026-04-28 18:29 57.18652 65.31597 378 ft 114 kts 225°
2026-04-28 18:29 57.18178 65.30640 368 ft 69 kts 227°
2026-04-28 18:29 57.18065 65.30418 373 ft 0 kts 226°
2026-04-28 18:30 57.18054 65.30396 373 ft 5 kts 226°
2026-04-28 18:30 57.18030 65.30350 374 ft 10 kts 226°
2026-04-28 18:30 57.17939 65.30171 375 ft 19 kts 227°
2026-04-28 18:30 57.17835 65.29963 377 ft 25 kts 227°
2026-04-28 18:31 57.17712 65.29715 382 ft 26 kts 228°
2026-04-28 18:31 57.17595 65.29476 385 ft 24 kts 227°
2026-04-28 18:31 57.17517 65.29329 385 ft 6 kts 215°
2026-04-28 18:31 57.17516 65.29327 385 ft 0 kts 213°
2026-04-28 18:32 57.17501 65.29331 385 ft 5 kts 163°
2026-04-28 18:32 57.17461 65.29382 385 ft 9 kts 136°
2026-04-28 18:32 57.17402 65.29483 386 ft 14 kts 136°
2026-04-28 18:32 57.17416 65.29655 385 ft 18 kts 48°
2026-04-28 18:33 57.17516 65.29857 383 ft 24 kts 47°
2026-04-28 18:33 57.17642 65.30111 381 ft 29 kts 47°
2026-04-28 18:33 57.17779 65.30390 377 ft 25 kts 47°
2026-04-28 18:33 57.17904 65.30643 374 ft 28 kts 48°
2026-04-28 18:34 57.18035 65.30909 369 ft 28 kts 47°
2026-04-28 18:34 57.18160 65.31161 366 ft 26 kts 48°
2026-04-28 18:34 57.18275 65.31397 357 ft 24 kts 49°
2026-04-28 18:34 57.18383 65.31616 351 ft 23 kts 45°
2026-04-28 18:35 57.18459 65.31884 342 ft 26 kts 90°
2026-04-28 18:35 57.18463 65.32231 332 ft 28 kts 88°
2026-04-28 18:35 57.18470 65.32603 326 ft 28 kts 88°
2026-04-28 18:35 57.18476 65.32946 331 ft 26 kts 89°
2026-04-28 18:36 57.18489 65.33250 331 ft 6 kts 69°
2026-04-28 18:36 57.18490 65.33255 335 ft 2 kts 61°
2026-04-28 18:36 57.18539 65.33253 334 ft 12 kts
2026-04-28 18:36 57.18607 65.33349 338 ft 13 kts 59°
2026-04-28 18:37 57.18614 65.33503 336 ft 12 kts 92°
2026-04-28 18:37 57.18593 65.33648 335 ft 12 kts 133°
2026-04-28 18:37 57.18534 65.33754 339 ft 12 kts 135°
2026-04-28 18:37 57.18477 65.33860 338 ft 11 kts 134°
2026-04-28 18:38 57.18421 65.33965 338 ft 12 kts 135°
2026-04-28 18:38 57.18355 65.34085 336 ft 15 kts 135°
2026-04-28 18:38 57.18277 65.34230 335 ft 17 kts 134°
2026-04-28 18:38 57.18189 65.34393 336 ft 16 kts 135°
2026-04-28 18:39 57.18112 65.34536 339 ft 15 kts 135°
2026-04-28 18:39 57.18056 65.34644 336 ft 9 kts 136°
2026-04-28 18:39 57.18051 65.34749 337 ft 9 kts 47°
2026-04-28 18:39 57.18075 65.34793 339 ft 1 kts 45°
2026-04-28 18:40 57.18079 65.34801 339 ft 1 kts 44°
2026-04-28 18:40 57.18080 65.34803 339 ft 0 kts 44°